DW6366 Weather Reports


Display with metric or nautical units.
time (UTC)temp
F
wind
direction
speed
MPH
gust
MPH
rain 1hr
in
rain 24hr
in
rain mn
in
humidity
%
barometer
mb
20260508204324 57 36 0.0 0.0 0.00 0.00 0.00 66 1018.9
20260508203321 58 36 0.0 2.0 0.00 0.00 0.00 65 1018.9
20260508202326 58 36 1.0 3.0 0.00 0.00 0.00 64 1018.9
20260508201322 59 11 0.0 1.0 0.00 0.00 0.00 63 1018.9
20260508200348 59 11 0.0 1.0 0.00 0.00 0.00 63 1018.8
20260508195318 59 11 0.0 3.0 0.00 0.00 0.00 62 1018.8
20260508194330 60 25 0.0 2.0 0.00 0.00 0.00 61 1018.8
20260508193326 60 64 0.0 3.0 0.00 0.00 0.00 61 1018.7
20260508192354 60 31 0.0 2.0 0.00 0.00 0.00 60 1018.6
20260508191321 60 40 0.0 1.0 0.00 0.00 0.00 60 1018.4
20260508190329 61 40 0.0 1.0 0.00 0.00 0.00 60 1018.4
20260508185326 61 41 0.0 1.0 0.00 0.00 0.00 59 1018.3
20260508184332 61 42 0.0 2.0 0.00 0.00 0.00 59 1018.2
20260508183326 61 27 0.0 2.0 0.00 0.00 0.00 59 1018.0
20260508182325 61 27 0.0 2.0 0.00 0.00 0.00 59 1017.9
20260508181335 62 23 0.0 2.0 0.00 0.00 0.00 58 1017.9
20260508180353 62 32 0.0 3.0 0.00 0.00 0.00 58 1017.9
20260508175345 62 359 0.0 2.0 0.00 0.00 0.00 58 1017.8
20260508174355 62 34 0.0 2.0 0.00 0.00 0.00 58 1017.8
20260508173344 62 6 0.0 2.0 0.00 0.00 0.00 58 1017.7
20260508172331 63 3 1.0 2.0 0.00 0.00 0.00 58 1017.6
20260508171342 63 12 1.0 3.0 0.00 0.00 0.00 58 1017.6
20260508170327 63 38 0.0 3.0 0.00 0.00 0.00 59 1017.6
20260508165355 63 29 1.0 3.0 0.00 0.00 0.00 59 1017.5
20260508164326 64 34 1.0 2.0 0.00 0.00 0.00 58 1017.4
20260508163322 64 6 1.0 3.0 0.00 0.00 0.00 59 1017.3
20260508162351 64 30 1.0 4.0 0.00 0.00 0.00 59 1017.2
20260508161323 64 48 1.0 5.0 0.00 0.00 0.00 57 1017.3
20260508160330 64 90 3.0 7.0 0.00 0.00 0.00 55 1017.2
20260508155320 65 348 1.0 6.0 0.00 0.00 0.00 54 1017.2
20260508154329 66 208 4.0 8.0 0.00 0.00 0.00 45 1017.3
20260508153338 67 82 3.0 7.0 0.00 0.00 0.00 47 1017.3
20260508152321 69 188 2.0 8.0 0.00 0.00 0.00 44 1017.3
20260508151335 72 152 2.0 7.0 0.00 0.00 0.00 45 1017.4
20260508150345 71 90 5.0 12.0 0.00 0.00 0.00 45 1017.4
20260508145337 70 208 5.0 10.0 0.00 0.00 0.00 47 1017.5
20260508144327 71 92 4.0 8.0 0.00 0.00 0.00 48 1017.4
20260508143335 69 170 1.0 3.0 0.00 0.00 0.00 49 1017.5
20260508142328 65 66 1.0 4.0 0.00 0.00 0.00 44 1017.5
20260508141321 65 76 2.0 6.0 0.00 0.00 0.00 41 1017.6
20260508140346 65 72 0.0 4.0 0.00 0.00 0.00 43 1017.7
20260508135412 65 74 3.0 6.0 0.00 0.00 0.00 44 1017.6
20260508134338 66 142 0.0 8.0 0.00 0.00 0.00 48 1017.7
20260508133346 68 208 2.0 6.0 0.00 0.00 0.00 50 1017.7
20260508132405 65 208 2.0 6.0 0.00 0.00 0.00 53 1017.9
20260508131339 65 208 3.0 6.0 0.00 0.00 0.00 54 1017.9
20260508130326 65 94 3.0 6.0 0.00 0.00 0.00 56 1018.0
20260508125350 65 161 2.0 6.0 0.00 0.00 0.00 57 1018.0
20260508124348 66 78 1.0 6.0 0.00 0.00 0.00 59 1018.0
20260508123326 67 59 2.0 9.0 0.00 0.00 0.00 54 1018.0
20260508122321 67 208 3.0 7.0 0.00 0.00 0.00 58 1018.0
20260508121334 66 42 1.0 9.0 0.00 0.00 0.00 58 1018.0
20260508120320 65 33 0.0 4.0 0.00 0.00 0.00 58 1018.0
20260508115409 65 335 2.0 8.0 0.00 0.00 0.00 59 1018.0
20260508114324 66 345 1.0 5.0 0.00 0.00 0.00 60 1018.0
20260508113357 65 98 4.0 12.0 0.00 0.00 0.00 61 1018.1
20260508112347 65 327 0.0 11.0 0.00 0.00 0.00 62 1018.1
20260508111337 64 69 4.0 10.0 0.00 0.00 0.00 67 1018.1
20260508110338 64 208 3.0 8.0 0.00 0.00 0.00 66 1018.2
20260508105326 62 98 2.0 10.0 0.00 0.00 0.00 68 1018.2
20260508104337 62 84 2.0 11.0 0.00 0.00 0.00 68 1018.3
20260508103331 62 73 1.0 6.0 0.00 0.00 0.00 70 1018.3
20260508102324 61 208 4.0 9.0 0.00 0.00 0.00 71 1018.4
20260508101354 61 54 4.0 8.0 0.00 0.00 0.00 72 1018.5
20260508100328 60 73 2.0 5.0 0.00 0.00 0.00 74 1018.5
20260508095329 59 66 3.0 9.0 0.00 0.00 0.00 75 1018.5
20260508094336 59 94 3.0 9.0 0.00 0.00 0.00 75 1018.5
20260508093349 58 208 5.0 10.0 0.00 0.00 0.00 76 1018.4
20260508092331 58 86 2.0 8.0 0.00 0.00 0.00 77 1018.4
20260508091320 58 69 2.0 10.0 0.00 0.00 0.00 77 1018.4
20260508090327 57 356 4.0 11.0 0.00 0.00 0.00 78 1018.4
20260508085319 57 208 2.0 9.0 0.00 0.00 0.00 79 1018.5
20260508084349 56 78 5.0 10.0 0.00 0.00 0.00 80 1018.5
20260508083339 56 208 4.0 8.0 0.00 0.00 0.00 80 1018.4
20260508082331 55 63 3.0 10.0 0.00 0.00 0.00 81 1018.4
20260508081320 55 208 3.0 9.0 0.00 0.00 0.00 81 1018.3
20260508080339 55 50 3.0 10.0 0.00 0.00 0.00 82 1018.3
20260508075334 54 88 5.0 9.0 0.00 0.00 0.00 82 1018.3
20260508074326 54 208 5.0 8.0 0.00 0.00 0.00 82 1018.3
20260508073353 54 107 4.0 9.0 0.00 0.00 0.00 82 1018.3
20260508072324 54 97 3.0 9.0 0.00 0.00 0.00 83 1018.2
20260508071349 53 90 2.0 8.0 0.00 0.00 0.00 83 1018.3
20260508070320 53 208 3.0 7.0 0.00 0.00 0.00 84 1018.2
20260508065337 53 89 2.0 6.0 0.00 0.00 0.00 84 1018.1
20260508064349 53 208 2.0 7.0 0.00 0.00 0.00 84 1018.0
20260508063348 52 92 5.0 8.0 0.00 0.00 0.00 84 1018.0
20260508062353 52 92 2.0 5.0 0.00 0.00 0.00 84 1017.9
20260508061330 52 100 2.0 5.0 0.00 0.00 0.00 85 1017.9
20260508060337 52 208 2.0 7.0 0.00 0.00 0.00 85 1017.8
20260508055317 52 93 4.0 7.0 0.00 0.00 0.00 85 1017.8
20260508054349 51 95 3.0 6.0 0.00 0.00 0.00 86 1017.8
20260508053347 51 208 4.0 8.0 0.00 0.00 0.00 86 1017.8
20260508052342 51 70 2.0 8.0 0.00 0.00 0.00 87 1017.7
20260508051349 51 68 2.0 4.0 0.00 0.00 0.00 87 1017.6
20260508050323 51 73 3.0 6.0 0.00 0.00 0.00 86 1017.5
20260508045331 51 208 4.0 9.0 0.00 0.00 0.00 86 1017.4
20260508044341 51 208 4.0 8.0 0.00 0.00 0.00 86 1017.4
20260508043324 51 85 5.0 9.0 0.00 0.00 0.00 85 1017.4
20260508042338 51 78 6.0 9.0 0.00 0.00 0.00 85 1017.4
20260508041331 51 208 4.0 10.0 0.00 0.00 0.00 85 1017.3
20260508040321 51 208 5.0 10.0 0.00 0.00 0.00 85 1017.3
20260508035332 52 102 4.0 8.0 0.00 0.00 0.00 84 1017.2
20260508034323 52 86 3.0 6.0 0.00 0.00 0.00 84 1017.2
20260508033345 52 208 2.0 6.0 0.00 0.00 0.00 84 1017.1
20260508032351 52 91 2.0 5.0 0.00 0.00 0.00 84 1017.2
20260508031341 52 84 2.0 5.0 0.00 0.00 0.00 83 1017.1
20260508030354 52 84 2.0 5.0 0.00 0.00 0.00 83 1017.1
20260508025348 53 208 2.0 4.0 0.00 0.00 0.00 83 1017.1
20260508024359 53 208 2.0 3.0 0.00 0.00 0.00 82 1017.0
20260508023324 53 208 3.0 4.0 0.00 0.00 0.00 82 1017.1
20260508022337 53 208 3.0 4.0 0.00 0.00 0.00 82 1017.0
20260508021325 53 208 2.0 4.0 0.00 0.00 0.00 81 1017.1
20260508020338 53 74 2.0 6.0 0.00 0.00 0.00 81 1017.1
20260508015340 53 208 2.0 5.0 0.00 0.00 0.00 81 1017.0
20260508014345 53 59 3.0 5.0 0.00 0.00 0.00 80 1017.0
20260508013321 54 84 2.0 5.0 0.00 0.00 0.00 80 1017.0
20260508012323 54 79 2.0 4.0 0.00 0.00 0.00 79 1017.1
20260508011334 54 80 2.0 4.0 0.00 0.00 0.00 79 1017.0
20260508010327 54 100 1.0 4.0 0.00 0.00 0.00 78 1017.0
20260508005323 54 208 1.0 3.0 0.00 0.00 0.00 78 1017.0
20260508004338 54 89 0.0 1.0 0.00 0.00 0.00 77 1017.1
20260508003325 54 89 0.0 1.0 0.00 0.00 0.00 76 1017.2
20260508002336 54 89 0.0 1.0 0.00 0.00 0.00 76 1017.2
20260508001324 54 89 0.0 0.0 0.00 0.00 0.00 76 1017.1
20260508000335 54 89 0.0 1.0 0.00 0.00 0.00 76 1017.1
20260507235337 54 89 1.0 3.0 0.00 0.00 0.00 75 1017.2
20260507234336 55 80 0.0 0.0 0.00 0.00 0.00 75 1017.3
20260507233323 55 80 0.0 0.0 0.00 0.00 0.00 75 1017.3
20260507232340 55 80 0.0 2.0 0.00 0.00 0.00 75 1017.3
20260507231332 55 80 1.0 3.0 0.00 0.00 0.00 74 1017.3
20260507230334 55 78 0.0 1.0 0.00 0.00 0.00 73 1017.3
20260507225346 55 78 0.0 1.0 0.00 0.00 0.00 73 1017.3
20260507224333 55 78 0.0 1.0 0.00 0.00 0.00 73 1017.4
20260507223321 55 78 0.0 0.0 0.00 0.00 0.00 73 1017.4
20260507222338 55 78 0.0 1.0 0.00 0.00 0.00 73 1017.4
20260507221347 56 79 0.0 1.0 0.00 0.00 0.00 73 1017.4
20260507220336 56 79 0.0 0.0 0.00 0.00 0.00 72 1017.4
20260507215333 56 79 0.0 0.0 0.00 0.00 0.00 72 1017.3
20260507214340 56 79 0.0 1.0 0.00 0.00 0.00 72 1017.3
20260507213329 56 79 0.0 1.0 0.00 0.00 0.00 72 1017.2
20260507212335 56 79 0.0 2.0 0.00 0.00 0.00 71 1017.2
20260507211329 56 78 0.0 1.0 0.00 0.00 0.00 71 1017.3
20260507210319 56 80 0.0 2.0 0.00 0.00 0.00 71 1017.3
20260507205337 56 80 0.0 1.0 0.00 0.00 0.00 70 1017.2